Wind_Speed
13 13 13 13 13 14 14 14 14 15 15 15 16 15 15 14 13 12 11 10 10 9 9 9 9 8 7 7 7 7 7 7 8 12 17 15 15 15 13 12 11 11 10 11 12 11 9 5 3 3 3 3 2 2 4 3 4 4 4 2 5 6 7 6 8 7 4 5 5 3 2 1 3 3 3 4 4 6 6 5 5 4 4 10 15 18 21 23
12 13 13 13 13 14 14 15 15 15 15 16 16 16 16 14 13 13 11 10 9 8 8 8 9 8 7 7 6 7 6 6 8 13 15 11 14 16 15 14 12 11 10 13 13 11 9 6 4 3 3 2 1 2 4 3 3 3 3 3 6 7 6 5 6 4 4 5 4 2 2 2 3 5 4 4 6 7 6 5 5 7 9 13 17 19 22 23
13 13 13 13 13 14 14 15 15 16 16 16 16 16 16 15 14 13 12 10 9 8 8 8 8 7 7 6 6 6 4 5 7 9 10 10 14 17 16 15 13 11 10 11 11 10 7 5 6 4 3 2 1 3 4 2 3 2 3 3 7 8 5 4 5 2 3 2 2 3 4 3 5 6 5 4 6 6 5 5 7 8 12 16 19 20 21 22
13 13 13 13 13 13 14 15 16 16 16 16 16 16 17 16 14 13 12 10 8 8 8 7 7 7 7 5 5 4 2 4 4 4 6 11 15 17 17 16 14 11 10 9 9 9 6 5 6 4 4 2 1 3 3 2 3 3 3 4 7 7 5 6 5 2 0 1 1 3 4 5 7 7 6 6 5 5 6 7 8 9 14 18 19 21 22 22
13 14 14 14 13 13 13 15 15 16 16 16 16 17 17 16 15 13 12 10 8 7 7 7 6 6 6 5 4 3 3 3 4 3 6 10 13 16 16 16 15 12 11 10 9 9 7 6 6 5 4 1 1 2 2 3 4 4 2 4 7 7 7 6 6 2 2 3 2 3 4 7 9 7 8 8 5 4 6 9 9 9 14 18 20 22 22 21
14 14 14 14 14 13 13 14 15 16 16 16 16 17 17 16 14 13 11 10 7 7 7 6 6 5 5 4 3 5 5 1 3 1 7 10 11 15 16 16 16 14 13 11 10 10 8 6 6 3 2 1 2 2 4 4 4 3 1 4 8 8 8 9 6 2 4 4 4 4 4 8 10 8 9 11 6 4 6 9 9 10 13 16 20 21 21 21
14 14 14 14 14 13 12 14 15 15 16 16 16 16 17 16 13 12 11 9 7 6 6 5 5 5 5 3 3 5 5 2 4 1 8 11 11 15 16 16 16 15 13 12 11 11 9 8 6 2 2 1 3 4 6 7 5 4 4 6 11 10 10 10 7 4 5 5 4 3 5 8 8 7 10 12 8 5 7 10 10 11 14 16 19 20 19 19
14 14 14 14 14 13 12 13 14 15 16 16 16 16 17 15 13 11 10 9 6 6 5 5 5 4 4 3 2 4 6 2 1 2 7 11 14 16 16 17 17 15 14 13 12 11 9 7 5 2 2 2 4 5 8 9 4 3 7 10 13 12 11 10 8 5 5 5 4 5 6 6 4 5 8 11 9 7 9 13 12 13 16 17 18 18 18 18
15 15 14 14 14 13 12 13 14 15 15 16 16 15 16 14 11 10 9 8 6 5 4 5 4 4 4 3 3 4 6 5 2 2 6 12 16 18 17 17 18 16 14 12 11 10 7 4 3 2 4 4 4 5 8 8 0 3 11 13 15 14 12 9 6 5 6 4 5 7 5 5 4 3 5 8 10 10 12 15 15 16 17 17 18 17 17 18
15 15 14 14 13 13 12 13 14 15 15 16 15 15 15 12 10 10 9 7 6 5 4 5 4 4 2 3 5 4 4 6 4 2 5 12 17 19 17 16 17 17 14 11 10 10 6 1 1 3 5 4 4 7 9 7 5 10 14 15 14 11 7 5 2 3 6 4 7 6 4 5 5 2 2 8 12 12 14 16 16 17 18 18 18 17 16 17
15 15 14 13 12 12 12 13 14 15 16 16 15 14 14 11 9 9 8 7 6 5 4 5 4 4 2 4 6 3 3 5 4 2 7 13 17 19 17 16 17 15 12 10 9 9 5 1 3 4 4 3 7 10 7 5 10 14 14 13 8 2 2 3 3 5 5 4 6 5 4 6 5 2 3 10 14 14 16 18 17 17 18 18 17 17 16 16
15 14 14 13 12 12 12 13 15 16 16 16 15 13 13 11 8 8 8 6 5 4 4 4 4 3 1 4 6 2 3 5 4 4 10 15 17 19 17 16 15 12 9 8 7 7 6 3 5 6 5 6 9 7 5 9 15 14 10 9 2 6 2 5 5 6 4 3 6 5 3 5 6 3 5 11 14 14 16 17 17 17 17 18 18 17 16 16
14 14 13 12 11 11 12 13 15 16 16 16 14 13 12 10 7 8 7 6 5 4 3 3 3 2 2 3 6 4 4 5 5 5 12 16 18 19 17 16 15 12 8 5 5 4 5 6 6 8 8 9 8 6 10 15 15 10 6 6 3 6 3 5 5 6 3 3 8 6 1 3 6 6 7 11 14 15 15 16 17 17 17 18 18 17 16 17
14 13 12 11 11 12 13 13 15 16 16 15 13 12 12 8 6 7 7 6 5 4 2 2 1 1 2 2 5 7 4 5 6 6 10 14 16 18 17 15 14 11 8 4 2 2 3 4 7 9 9 8 8 10 13 11 8 5 3 4 3 2 3 5 4 5 2 4 9 6 0 2 6 8 8 11 14 15 14 16 17 17 17 17 18 18 17 17
14 13 12 11 11 11 13 13 14 15 15 15 13 12 10 7 6 6 7 6 5 4 2 1 2 3 3 3 4 7 6 6 6 7 9 11 11 14 15 14 11 9 8 4 2 1 1 3 6 8 7 7 9 10 8 5 3 3 2 2 1 1 4 6 4 2 1 4 9 6 1 3 6 8 9 11 13 14 13 15 17 17 17 17 18 18 16 17
14 13 12 11 11 11 13 13 13 15 15 14 12 11 9 7 6 6 7 5 5 4 1 0 3 4 3 3 5 7 6 6 6 8 9 10 9 9 11 11 9 8 6 5 4 3 3 4 6 8 8 8 7 6 6 4 4 1 3 1 2 3 2 4 4 2 2 4 9 7 3 2 5 8 10 11 14 14 12 13 16 16 17 18 17 17 16 16
14 13 12 12 12 12 13 13 13 15 15 13 11 10 8 7 6 7 7 5 5 3 2 1 4 5 2 2 6 7 7 7 8 8 9 11 9 8 9 9 8 7 6 5 5 5 6 5 6 6 6 6 4 4 5 3 3 1 4 3 3 4 4 1 4 3 1 2 5 7 5 2 6 9 10 12 14 14 12 12 15 16 17 17 17 17 16 16
14 13 12 13 12 12 13 13 14 14 14 12 10 8 7 6 7 7 6 4 3 2 2 3 6 3 3 6 6 7 9 8 8 7 8 11 10 8 8 7 7 8 7 6 7 6 7 6 5 4 4 5 3 4 4 1 3 5 5 4 4 5 4 3 3 2 1 4 3 5 5 1 6 9 10 12 14 14 13 12 14 15 16 17 17 18 17 16
14 14 13 13 13 13 13 13 13 13 13 11 8 7 6 6 7 6 5 3 2 2 0 6 7 1 4 9 6 7 10 9 8 7 8 9 9 9 7 6 8 10 9 7 8 9 7 5 5 5 5 3 1 3 4 5 6 7 7 6 7 6 4 4 5 4 4 5 4 3 4 2 6 8 9 12 14 14 13 12 13 14 16 17 17 18 17 17
15 15 14 13 13 13 13 13 13 12 11 9 7 5 4 5 5 2 1 5 7 6 2 4 6 2 6 9 6 8 11 9 7 8 10 9 9 10 8 8 9 9 9 6 7 9 8 6 6 6 3 1 2 3 6 6 6 7 7 6 7 6 4 4 4 3 4 6 2 1 5 3 4 8 9 12 14 14 13 13 13 15 16 17 18 18 18 18
15 15 15 14 13 13 12 12 11 10 9 7 5 3 3 5 3 1 1 5 5 5 5 5 7 3 4 6 6 9 10 8 7 9 10 8 10 11 10 10 9 8 9 7 5 6 6 6 6 3 2 2 3 5 6 7 7 7 7 6 6 5 3 3 3 2 2 5 2 2 6 3 4 6 8 11 12 13 14 14 14 16 16 18 20 19 18 18
15 15 14 13 12 12 11 10 9 8 7 5 3 4 3 3 2 3 4 4 2 2 4 7 9 5 4 5 7 10 9 9 10 10 9 10 11 11 9 11 9 7 9 7 4 5 7 9 5 1 1 3 5 6 6 8 8 7 5 5 5 2 3 0 2 0 2 4 3 5 7 1 5 5 7 9 11 11 13 14 14 16 16 17 20 20 19 19
14 13 12 11 10 10 9 9 7 5 4 4 3 5 5 3 1 3 4 4 2 2 3 8 9 5 6 6 8 12 11 10 11 11 10 11 11 9 9 11 9 7 9 9 8 5 5 5 2 3 1 4 6 5 6 7 6 6 5 5 3 3 5 1 3 2 5 4 4 8 7 2 5 4 5 8 10 10 12 13 13 14 16 17 19 20 21 21
13 11 10 8 8 8 7 7 4 3 4 5 5 6 5 3 2 3 3 5 2 4 4 7 6 5 7 6 8 13 10 8 10 11 12 12 10 8 9 10 8 8 8 10 11 8 4 4 4 2 2 4 6 5 6 6 5 5 5 6 5 5 7 5 3 6 6 3 3 7 7 3 5 5 5 7 9 10 11 13 14 14 15 16 17 20 22 22
12 10 8 6 6 5 5 4 3 5 5 6 5 5 3 2 1 2 3 5 3 5 5 7 6 5 8 8 9 11 8 6 8 12 14 13 11 7 6 7 7 8 8 9 9 9 5 4 4 4 3 4 6 5 5 4 4 5 2 2 6 7 7 7 6 6 4 3 2 4 6 1 5 5 5 6 8 9 11 13 14 15 16 16 18 20 22 22
10 9 8 6 4 4 2 2 6 8 7 7 5 4 2 1 2 1 3 4 4 6 6 7 6 6 9 9 11 10 8 7 7 10 14 13 10 6 5 7 6 6 5 7 7 6 6 4 5 7 6 6 8 6 3 3 6 3 4 4 6 7 7 7 6 4 3 2 1 2 6 2 3 4 4 7 8 9 11 12 14 16 16 18 19 19 20 22
9 8 6 4 4 5 4 4 8 8 6 7 6 4 2 1 2 2 3 4 4 6 6 5 4 7 8 9 13 9 5 10 10 10 13 13 10 6 5 6 5 5 4 5 5 3 6 7 7 9 8 7 7 4 2 2 7 2 5 5 7 7 8 7 6 5 2 4 3 3 4 5 1 4 4 6 7 8 10 12 13 16 17 18 20 19 20 22
8 7 5 3 5 7 7 7 9 8 6 6 6 4 3 2 1 2 5 4 4 5 6 5 4 7 8 10 12 4 5 11 9 10 13 12 10 7 7 5 6 6 6 7 5 4 5 8 9 9 9 7 5 2 0 4 7 3 5 7 8 8 8 7 6 4 2 4 4 2 1 5 2 5 5 5 6 7 10 13 14 16 18 19 20 21 21 21
8 7 5 3 5 7 9 9 10 10 9 7 5 4 3 2 1 3 6 2 4 4 6 7 7 8 9 10 9 3 5 6 3 10 15 11 9 6 4 3 5 5 6 8 8 2 3 4 4 5 7 5 3 3 4 6 6 5 8 10 9 8 7 5 6 4 2 4 4 1 2 5 2 3 5 4 4 4 6 10 13 17 19 19 19 21 22 22
8 7 4 3 5 7 9 9 11 11 10 7 5 3 3 3 3 6 5 2 4 5 6 7 8 10 12 11 9 5 6 4 5 13 14 11 11 7 3 2 4 4 5 7 9 7 4 4 4 5 7 6 6 7 7 8 8 9 10 10 8 7 5 4 4 3 4 5 2 1 2 5 3 1 2 2 1 1 1 4 9 16 19 19 19 20 21 23
9 7 4 4 6 9 8 7 11 12 10 7 4 4 4 4 4 6 3 3 4 6 7 7 7 10 13 10 8 6 5 5 9 13 11 8 10 8 4 4 4 5 5 6 8 9 10 9 7 7 9 8 8 9 9 9 8 8 7 6 6 5 4 5 5 4 5 4 1 1 2 4 3 1 3 3 3 1 1 2 5 13 18 20 19 19 20 22
8 5 3 4 7 10 8 8 12 13 11 7 5 5 5 5 5 3 3 4 4 6 8 8 8 10 12 9 7 8 6 5 9 11 9 8 8 7 7 5 4 6 5 5 6 7 9 10 8 9 9 10 9 7 6 7 6 6 6 5 5 4 4 5 5 4 5 3 1 1 2 3 2 2 4 4 4 3 2 2 2 8 16 19 19 19 19 21
4 2 4 6 8 11 10 10 13 14 12 8 6 6 6 5 3 2 5 5 3 5 7 8 9 10 11 8 6 9 7 5 8 10 9 9 7 8 9 6 4 5 3 3 5 5 7 9 10 10 9 11 11 7 5 6 6 7 6 4 4 4 4 5 4 3 4 3 2 1 2 3 2 2 3 5 6 5 3 2 2 5 11 17 19 19 19 20
1 4 6 8 9 11 10 11 13 14 12 9 7 7 6 4 2 3 5 4 4 5 7 10 11 10 11 8 7 10 6 4 8 8 7 9 7 7 9 7 7 7 3 3 3 4 6 6 11 12 7 10 13 10 7 4 3 5 2 4 5 4 4 4 3 3 3 2 2 2 2 3 0 3 3 4 5 4 3 3 4 5 8 13 16 18 18 19
4 5 7 8 9 10 10 11 13 13 12 9 7 5 5 2 4 3 4 6 5 6 8 10 10 9 9 6 7 9 6 2 8 8 6 8 6 6 8 8 11 9 5 4 1 3 5 1 9 11 5 7 11 9 7 7 5 3 1 5 5 3 3 4 3 3 4 3 2 3 2 1 1 2 2 1 3 4 3 4 6 7 8 10 13 16 17 18
4 5 7 7 7 8 9 11 14 14 12 9 7 4 2 1 3 2 3 5 5 7 10 11 9 8 9 6 7 10 7 3 8 8 6 7 7 7 7 6 11 12 8 4 1 3 5 1 10 10 7 7 8 5 6 7 4 1 4 6 1 3 6 6 2 2 5 5 2 2 2 1 1 2 3 3 4 5 4 4 6 7 9 10 11 14 16 17
6 7 6 5 6 7 11 13 14 14 11 8 5 2 1 2 2 3 3 2 3 7 10 9 7 7 8 7 7 10 8 5 7 7 5 6 5 7 9 7 9 13 12 9 3 1 4 3 9 9 8 8 6 6 8 9 6 3 4 1 2 1 5 5 3 3 5 5 3 2 1 1 2 3 4 3 3 5 5 4 5 6 8 9 9 11 14 15
7 9 7 5 7 10 12 13 13 12 9 7 5 4 3 0 2 2 1 1 2 7 9 5 5 7 7 7 7 10 10 7 7 7 5 5 4 5 9 9 9 13 15 13 6 1 3 4 7 7 5 7 6 7 8 8 8 8 6 4 2 4 3 3 3 4 4 4 3 4 1 1 1 3 3 2 3 5 6 4 4 4 5 6 7 9 11 13
9 8 5 4 9 11 11 11 10 9 8 5 4 3 1 1 1 2 3 3 3 7 7 4 5 5 6 6 7 10 10 7 7 6 5 4 4 5 7 8 9 13 15 14 8 2 3 5 4 8 5 4 6 7 8 8 9 8 7 5 4 3 2 3 3 4 4 3 2 3 2 1 2 3 1 3 4 5 6 5 3 3 4 4 5 7 10 11
5 3 4 4 9 10 10 9 7 7 7 4 3 1 1 3 3 3 4 5 6 6 5 3 6 6 6 6 6 8 9 8 6 5 4 3 3 4 7 7 8 11 15 14 9 4 3 5 2 8 7 5 6 6 5 4 5 6 7 7 6 3 3 3 3 3 4 3 2 2 2 2 3 4 1 3 4 4 6 5 4 5 4 4 4 6 8 10
4 1 4 5 9 10 9 7 6 6 5 4 4 3 3 4 5 4 4 7 8 7 5 4 4 6 6 6 6 7 7 7 7 5 3 4 4 2 6 7 7 10 12 11 9 6 4 4 3 5 7 6 5 3 2 3 4 5 6 6 6 5 3 3 4 4 2 4 3 1 3 2 4 3 1 4 4 4 6 6 5 6 5 4 4 5 6 7
6 0 5 7 9 9 6 5 4 3 4 3 3 4 4 4 4 3 3 7 8 7 6 5 5 5 6 6 5 6 7 7 7 6 4 4 3 0 5 7 9 12 11 7 7 7 4 4 4 4 5 3 2 2 2 4 6 6 5 4 5 4 4 5 4 3 3 5 4 2 3 2 3 3 1 4 5 6 7 7 7 7 6 5 4 4 4 4
2 2 5 8 9 7 4 5 3 3 4 3 5 6 6 5 4 2 2 6 7 6 6 6 6 6 6 5 4 6 8 5 5 6 4 3 3 1 5 7 10 13 11 6 6 7 4 3 5 4 5 3 2 4 2 3 6 6 4 4 4 4 5 5 4 2 3 5 4 3 3 2 2 0 1 5 6 7 8 8 8 7 7 6 5 4 3 3
2 5 5 7 8 5 4 3 1 2 1 3 5 4 4 5 5 3 2 4 5 5 6 5 6 5 4 5 5 6 6 4 4 5 3 2 2 4 4 9 10 11 10 5 6 8 5 3 4 4 5 5 5 5 5 4 5 4 2 3 3 4 5 5 4 4 4 4 4 4 4 3 4 2 3 6 7 7 7 8 8 8 7 6 6 5 3 2
3 5 4 6 7 6 5 4 3 3 3 4 3 1 3 4 4 3 1 2 3 6 5 3 4 4 4 6 6 5 6 3 2 4 3 2 4 4 3 11 14 12 7 1 3 8 6 3 3 4 5 5 4 3 2 1 3 1 1 2 3 5 6 5 4 5 5 3 3 5 4 3 5 2 4 7 7 6 7 8 9 8 8 7 6 5 4 2
3 2 4 6 7 7 6 4 5 4 4 4 2 3 2 3 5 2 2 3 4 4 3 4 5 6 6 7 6 6 7 4 1 4 2 0 3 3 1 10 15 10 4 2 5 8 4 3 4 4 4 2 1 1 1 2 3 2 2 3 3 4 5 4 5 4 2 2 3 3 4 1 4 5 6 7 6 6 7 8 9 9 8 7 6 5 4 3
4 1 1 2 4 6 6 3 3 4 4 4 2 4 5 3 6 3 2 3 4 3 3 5 5 5 7 9 7 6 6 5 4 5 3 3 4 6 6 9 12 7 3 4 9 7 3 4 5 5 6 4 3 4 3 3 4 3 4 3 2 3 5 6 6 1 1 4 3 2 4 5 6 7 6 7 6 6 7 9 9 8 8 7 5 5 5 3
3 1 1 2 1 1 1 0 3 4 3 4 3 4 5 5 5 4 3 3 2 0 0 4 5 4 6 6 6 6 6 6 7 5 3 4 5 7 8 7 8 8 6 7 9 5 4 3 2 4 7 6 6 7 5 4 4 3 4 3 2 3 4 7 7 4 4 5 1 1 6 8 5 3 5 7 6 7 9 9 8 8 7 7 6 6 5 4
2 1 1 2 2 3 3 4 6 5 3 3 2 4 7 8 8 6 4 2 3 4 3 5 7 5 5 4 3 6 5 4 6 5 3 3 4 5 6 6 6 9 9 8 7 4 4 2 2 5 7 6 5 5 5 6 5 3 3 4 3 3 2 4 6 5 5 5 1 0 4 8 6 2 5 6 6 8 9 8 8 9 9 9 8 8 7 5
1 1 1 3 3 2 3 5 5 3 2 2 2 4 6 8 9 8 6 6 5 6 6 8 9 7 6 6 6 7 7 6 6 5 4 3 3 3 3 4 3 6 7 5 5 5 3 2 2 5 6 6 5 3 4 7 6 5 3 3 5 5 2 1 3 2 3 5 5 4 3 7 6 3 6 7 7 8 8 9 10 11 11 11 11 10 9 7
2 1 1 3 2 1 2 3 3 2 1 2 4 5 6 8 8 6 7 9 9 7 7 7 7 7 8 10 10 9 8 7 5 5 5 4 4 4 3 3 4 1 5 3 3 5 4 2 2 4 6 5 5 5 6 7 8 9 4 3 6 7 2 3 2 1 2 3 6 6 4 4 5 5 7 7 8 9 10 10 11 11 12 13 12 12 12 10
2 2 1 3 2 0 1 1 2 2 1 3 4 5 5 6 6 4 3 7 10 9 7 6 4 3 6 9 9 8 7 6 5 5 4 3 2 3 3 3 4 2 1 1 2 2 3 4 3 3 5 4 5 5 7 7 9 9 2 3 3 4 1 4 5 5 3 2 4 6 3 4 4 4 6 7 8 9 11 11 11 12 13 13 13 14 14 13
Wind_Direction
357 355 354 354 353 353 352 351 350 349 349 348 347 346 344 340 334 327 320 312 304 296 288 281 277 276 272 267 257 250 242 231 227 222 224 221 212 210 204 198 191 195 182 164 180 181 173 187 203 238 279 297 291 326 340 329 305 280 267 12 47 40 43 24 19 32 31 46 44 63 107 104 129 155 148 148 140 131 142 140 128 116 99 116 124 132 139 144
350 346 345 345 346 347 347 347 346 347 348 348 347 346 344 340 336 329 322 313 302 293 286 279 274 276 277 270 260 256 249 243 240 236 234 224 213 209 204 200 191 191 183 176 183 179 177 187 195 228 273 284 309 328 336 333 300 299 309 25 53 29 34 25 13 27 14 47 71 71 109 110 131 157 177 170 149 145 145 141 139 128 123 127 131 137 143 148
345 342 339 337 339 341 342 343 342 344 345 346 346 346 344 340 336 331 324 314 301 293 284 278 274 273 278 271 264 261 258 269 259 252 244 219 210 204 201 199 191 189 183 181 185 181 183 183 188 214 271 290 13 314 320 332 307 325 327 24 53 13 15 45 13 359 5 45 112 103 123 130 140 159 180 177 157 165 172 162 164 152 140 138 139 144 149 152
340 339 337 333 333 335 338 339 338 340 341 343 345 345 344 339 336 332 326 317 301 290 282 277 271 268 276 269 264 258 258 273 233 228 227 207 206 199 196 194 189 188 179 185 186 180 182 176 187 218 263 291 45 279 317 4 319 316 312 6 26 351 355 39 11 333 252 225 124 120 145 142 149 162 171 168 164 184 197 186 181 167 152 148 148 153 156 156
335 335 334 332 330 331 334 335 335 337 338 340 342 344 342 338 335 331 328 321 302 289 282 275 268 264 270 265 255 216 217 232 151 183 210 197 202 194 192 189 187 186 179 186 180 176 175 171 195 222 248 299 45 267 359 10 310 293 282 354 353 337 338 357 350 307 195 205 182 165 156 136 145 168 179 168 174 203 200 195 191 173 160 157 157 158 159 160
331 331 331 330 328 328 331 333 333 334 336 336 339 343 341 338 334 331 330 322 304 287 281 275 268 260 264 259 235 205 223 296 72 225 189 182 194 189 190 186 186 187 181 183 175 177 176 175 202 218 251 299 17 358 7 347 308 286 301 352 340 333 318 322 324 252 202 208 198 184 149 142 153 170 183 178 179 194 189 193 190 174 164 160 160 160 161 163
327 327 327 327 325 325 327 329 331 333 335 335 337 341 340 338 333 331 330 321 307 286 280 277 265 256 263 249 214 212 231 330 16 216 169 175 183 181 188 185 187 188 181 184 179 181 181 182 203 249 301 305 8 353 349 330 285 268 316 339 333 324 307 309 307 255 218 221 199 173 162 168 169 158 177 187 178 149 167 181 177 166 161 162 164 163 164 165
323 323 324 324 322 322 323 326 329 332 334 334 336 339 339 338 334 332 328 321 308 287 278 273 262 256 260 220 197 222 215 245 342 155 163 174 173 176 186 184 189 188 181 187 183 185 188 189 203 261 306 7 351 334 342 324 254 244 312 322 321 316 312 309 296 260 228 221 186 177 176 176 170 139 167 185 175 149 157 166 162 160 160 166 170 166 166 168
319 319 320 320 319 318 319 323 326 329 333 334 334 337 339 338 336 334 327 322 309 292 277 264 258 252 254 189 213 230 200 217 218 138 164 173 171 175 185 188 188 183 182 189 187 191 194 200 212 287 314 332 326 323 332 320 329 338 313 312 312 311 320 320 299 244 213 201 182 181 172 165 156 143 164 167 166 157 156 160 158 160 163 170 174 171 171 172
316 316 317 318 316 314 317 319 323 328 331 333 333 334 337 336 336 337 331 323 311 296 274 263 257 247 247 164 220 228 178 210 202 146 169 172 174 176 185 193 185 178 183 189 192 195 196 223 287 300 300 300 307 316 318 310 327 320 307 305 302 307 332 340 351 170 183 183 187 183 155 159 159 174 176 153 159 157 155 159 160 163 168 172 176 177 177 177
313 313 314 315 313 312 314 317 320 325 328 331 331 331 335 331 331 339 335 326 313 299 280 270 256 249 222 177 229 244 144 187 180 160 165 167 177 178 185 191 179 177 183 188 195 200 206 273 334 295 286 309 314 311 306 303 311 307 304 305 293 254 34 19 74 138 167 172 185 188 150 158 172 198 135 145 157 158 157 160 164 169 170 172 175 178 182 182
312 312 312 312 310 310 313 316 318 322 325 327 327 329 331 325 327 339 339 331 317 300 289 276 262 264 210 199 239 253 152 170 149 148 156 160 178 183 186 184 175 177 184 192 200 206 224 258 304 295 309 325 316 313 310 306 305 299 293 301 243 153 109 44 93 154 175 159 173 181 152 167 189 177 124 145 159 160 160 163 168 174 170 171 175 177 183 184
314 311 310 307 308 309 312 316 318 320 322 324 325 326 325 321 323 339 344 339 326 309 294 278 274 261 199 210 220 196 157 160 139 137 153 160 178 186 184 181 178 177 173 182 201 213 240 259 282 291 302 306 306 310 306 299 294 289 275 278 221 164 125 68 112 165 157 135 169 178 121 168 180 158 139 153 160 162 164 167 172 175 174 174 176 178 183 186
314 312 307 302 305 308 311 317 319 320 321 322 322 322 322 316 317 340 348 346 341 325 310 269 263 193 196 219 197 181 151 149 145 131 146 157 177 188 187 187 184 183 177 158 160 207 245 266 273 279 283 284 293 299 294 286 278 284 260 244 243 148 112 97 134 172 141 139 177 195 342 125 151 146 152 160 164 168 168 171 175 175 178 179 179 181 182 186
312 310 302 298 302 305 309 316 320 321 320 321 320 320 320 307 310 335 340 348 351 339 339 240 125 126 197 203 180 178 147 137 144 135 143 151 167 183 190 195 193 195 197 181 171 173 287 288 267 274 286 279 280 288 288 274 244 276 266 208 306 35 116 117 136 186 39 139 183 218 329 104 136 143 153 164 171 176 175 172 176 177 181 183 183 184 183 186
309 306 299 296 298 301 305 311 317 319 320 321 319 319 317 302 300 321 330 342 346 343 31 152 132 144 204 175 160 170 147 141 152 148 150 152 158 172 183 192 196 201 201 199 219 238 256 275 270 275 290 282 273 289 293 255 185 175 331 7 10 354 76 119 149 164 64 138 186 222 289 56 127 146 154 169 176 183 185 175 178 183 184 185 185 187 186 187
307 304 298 294 295 298 300 306 313 315 318 320 318 318 315 298 288 312 323 323 337 358 139 125 137 162 228 167 166 167 158 162 160 153 154 159 167 169 167 174 185 189 189 202 222 238 238 247 261 257 257 264 279 296 280 239 160 57 350 349 1 343 335 60 128 139 147 206 204 213 245 18 121 148 160 175 183 188 190 182 181 185 187 186 186 189 190 189
308 304 299 296 295 296 297 303 308 310 316 318 317 316 307 295 291 302 303 300 348 56 160 162 159 181 196 170 164 150 159 167 155 155 161 164 168 164 161 166 171 171 182 205 207 211 214 215 244 256 239 238 256 276 273 1 2 346 348 340 335 329 321 355 38 43 280 264 241 211 240 251 142 157 165 177 188 193 193 189 185 186 188 187 187 192 193 192
308 304 301 299 297 297 297 301 304 306 313 314 314 312 302 297 291 292 288 267 234 234 135 160 177 311 110 142 131 138 158 156 144 152 162 164 165 164 166 166 168 174 184 193 184 190 201 203 221 242 241 224 171 311 324 354 338 330 335 320 311 313 313 336 3 17 339 291 256 228 276 264 166 170 171 178 190 199 197 189 187 187 188 189 189 193 195 195
303 300 299 299 299 299 297 299 300 303 310 311 308 296 292 288 261 227 236 249 247 258 294 172 201 331 101 127 121 144 152 145 140 154 165 165 160 164 169 168 171 187 201 193 168 180 204 220 222 230 239 70 27 324 321 323 314 313 310 300 300 294 292 333 8 33 340 307 296 344 303 284 181 178 175 180 189 199 203 193 190 190 190 192 192 193 194 195
301 295 294 294 294 295 294 295 296 301 306 302 289 255 291 307 271 55 313 248 248 251 243 210 216 229 140 131 137 151 150 148 144 154 165 161 163 168 168 174 182 194 203 199 163 163 201 235 232 243 337 5 310 308 306 300 299 298 295 294 288 278 299 355 17 33 339 313 341 6 303 277 169 177 174 183 191 199 206 199 195 193 193 196 195 195 193 192
302 296 293 289 288 288 287 291 292 298 299 283 256 219 252 296 285 358 334 264 228 242 228 197 205 217 171 164 169 163 163 160 146 154 164 159 180 191 171 183 202 191 184 193 184 165 206 236 221 147 335 280 280 291 287 287 288 284 280 276 273 302 328 162 134 93 311 308 330 335 316 356 141 174 175 187 198 201 204 204 202 198 196 198 197 197 194 191
307 300 296 290 283 280 279 287 289 287 270 237 197 194 216 237 269 354 331 285 234 193 204 195 205 211 184 189 180 170 176 175 157 161 169 165 186 202 180 190 209 191 179 195 211 211 210 220 156 120 237 270 275 272 272 274 266 262 266 266 273 341 322 256 127 327 304 295 310 310 302 147 138 173 180 195 203 199 199 202 207 205 202 202 200 198 195 193
310 303 299 291 279 273 273 279 276 247 216 190 180 191 211 234 320 357 312 280 223 149 179 192 201 203 184 180 175 178 187 186 172 169 173 173 178 186 189 198 206 199 196 203 218 240 231 112 90 128 191 249 270 264 262 269 256 248 256 274 296 323 321 324 334 316 297 240 249 298 290 173 161 183 176 184 197 202 197 197 204 208 208 205 201 200 198 197
311 303 297 287 273 265 265 267 229 198 179 173 184 197 217 240 279 353 286 257 186 137 166 183 193 198 183 175 173 182 190 185 181 172 170 178 178 172 184 198 212 209 200 202 217 244 242 147 152 219 227 249 271 270 264 285 276 244 229 325 327 325 319 313 310 307 283 211 155 319 309 166 157 175 163 158 182 203 199 199 204 204 208 207 203 202 199 200
310 303 294 279 256 235 243 220 187 177 171 182 196 202 212 225 221 260 275 244 174 140 155 172 178 167 170 175 166 178 197 177 164 166 168 181 187 188 186 181 219 234 192 195 221 245 242 195 201 245 263 263 267 263 244 274 268 236 82 22 328 316 306 302 305 294 281 313 45 309 310 316 141 146 151 161 180 199 198 205 209 202 205 207 206 205 200 200
312 305 292 270 221 199 193 182 178 168 170 195 203 207 207 194 222 277 262 224 167 148 153 157 160 145 147 164 168 184 181 136 142 166 174 180 181 205 222 179 202 234 181 201 227 219 220 219 221 241 254 252 257 249 164 251 271 300 49 345 310 306 302 304 298 274 301 326 267 224 302 299 269 115 138 173 189 198 200 207 209 205 205 205 207 206 202 201
311 306 295 258 209 197 198 196 183 177 185 192 191 195 193 183 202 280 254 206 136 144 148 132 143 142 135 158 176 193 113 133 158 170 173 184 181 206 233 201 209 212 178 212 227 134 180 223 225 231 238 237 249 277 24 272 271 304 351 318 303 295 294 297 283 266 328 311 262 179 338 293 298 107 139 187 206 212 210 208 207 206 206 205 206 206 204 203
303 301 297 244 211 198 197 195 186 185 186 179 179 178 173 183 201 247 255 217 137 162 144 134 148 152 149 162 178 178 135 160 175 147 162 186 190 217 261 199 218 212 177 223 246 162 155 228 241 245 243 237 259 286 277 268 266 300 316 300 281 265 266 274 272 275 290 281 278 45 359 301 325 112 152 186 218 228 212 206 203 201 203 204 204 204 203 201
292 292 287 241 216 197 192 192 188 185 179 177 172 152 169 198 226 228 221 158 157 155 137 148 155 157 162 167 177 181 164 156 122 144 164 181 186 215 284 152 220 231 189 218 247 263 265 253 255 259 255 264 290 287 274 264 268 291 298 286 266 238 227 248 264 289 276 259 262 21 331 299 303 107 129 133 93 15 100 181 190 191 196 200 201 201 200 198
284 282 270 234 208 189 182 186 187 180 176 178 156 147 184 201 239 240 181 141 163 145 153 170 157 161 174 178 176 176 176 149 145 161 168 175 187 202 206 185 205 221 212 214 227 237 240 236 234 234 240 255 272 272 263 249 252 273 276 275 271 231 216 239 225 230 261 255 170 55 309 284 279 51 36 48 87 75 43 103 167 183 190 195 198 199 197 196
279 277 243 209 194 181 174 178 181 178 177 177 161 182 219 210 224 241 121 156 183 156 168 169 160 173 180 185 173 167 178 158 161 178 178 181 191 193 203 204 185 202 218 212 203 207 217 220 220 220 222 233 252 257 233 219 225 244 244 249 261 238 223 239 223 218 256 257 87 24 301 267 263 36 19 34 80 97 69 67 125 172 185 190 193 195 195 195
274 244 192 183 179 176 176 176 179 179 174 173 185 213 245 228 203 102 132 174 162 143 163 160 163 176 177 184 172 163 179 156 163 189 188 192 200 194 207 217 217 239 247 197 196 195 196 195 204 217 212 214 234 246 211 189 190 210 231 243 251 256 248 245 236 237 254 240 138 73 295 259 213 103 57 55 68 79 86 95 114 149 178 186 189 192 192 193
186 171 169 173 177 178 180 175 177 181 174 179 209 227 241 223 132 107 158 154 112 133 155 156 160 170 180 190 162 164 187 154 164 190 184 194 214 203 204 206 214 244 264 222 227 213 210 189 189 201 188 186 210 237 263 291 226 205 236 275 268 276 267 268 272 253 258 248 160 147 250 266 233 71 63 76 86 96 100 109 129 141 163 178 184 190 191 192
146 158 164 173 180 182 184 178 177 179 175 190 228 236 231 179 121 147 150 123 132 147 147 157 165 170 183 190 160 178 223 195 172 193 190 197 216 207 207 198 196 220 243 232 204 203 249 268 161 178 163 170 198 219 254 281 256 201 221 253 262 295 277 284 304 302 306 288 218 181 219 269 9 40 53 119 126 127 126 126 141 151 154 166 179 187 192 194
126 141 157 170 179 182 181 177 175 173 179 208 236 220 216 45 81 113 112 121 154 150 147 163 177 180 179 177 171 187 225 229 179 192 198 206 222 217 218 201 187 204 225 232 161 174 239 172 141 172 195 200 222 221 216 247 258 178 227 235 261 357 294 283 265 274 287 267 217 183 218 198 155 112 93 122 146 140 146 142 136 146 157 166 178 186 192 196
113 116 124 149 169 168 165 168 168 173 190 225 247 249 348 14 45 59 96 120 141 153 162 166 178 194 178 170 181 182 192 198 184 196 196 194 217 215 214 211 190 199 214 235 253 104 258 204 150 183 201 183 224 247 224 244 265 254 255 299 62 258 267 276 261 238 246 242 199 155 219 262 162 125 100 118 133 122 121 120 124 144 162 173 180 184 191 197
115 108 99 127 154 149 154 162 163 175 204 238 249 265 292 266 70 45 103 150 155 180 190 170 169 208 191 172 178 173 179 184 175 195 203 180 186 193 203 206 193 201 212 225 235 76 291 245 160 184 203 150 173 231 223 220 231 252 293 341 297 249 237 235 252 254 245 245 206 153 126 328 82 96 108 110 87 96 102 107 122 137 154 171 175 177 186 195
119 112 87 114 147 146 153 156 159 187 220 243 234 225 267 265 296 289 245 244 222 200 206 176 158 209 211 180 168 167 184 192 171 190 215 190 166 166 193 201 189 199 206 212 225 204 244 258 168 169 199 161 174 217 221 197 196 230 266 262 242 264 275 238 239 259 263 261 220 166 144 154 55 37 85 93 65 80 91 89 85 90 120 145 155 165 177 189
139 130 81 114 150 151 151 152 171 211 227 248 268 283 321 295 288 272 239 233 226 212 221 194 162 189 201 184 172 173 192 210 197 201 206 181 179 167 180 196 187 189 196 201 218 216 208 257 202 158 181 210 199 203 222 208 188 206 224 224 216 207 233 247 244 253 277 284 238 179 195 171 60 2 308 91 60 53 67 70 69 63 82 115 134 154 167 182
205 175 104 143 162 154 156 175 200 228 235 248 270 271 287 303 299 274 225 215 223 231 250 253 198 189 185 187 193 182 194 215 214 220 205 185 220 192 166 193 187 172 182 196 208 209 209 254 252 173 183 200 182 166 297 297 262 241 227 222 222 204 200 235 235 216 238 271 269 229 218 158 53 340 243 102 72 60 65 62 62 60 65 91 125 148 159 175
231 192 125 167 168 153 179 220 210 230 249 262 296 286 279 294 290 268 207 200 219 229 231 244 238 206 189 195 199 187 198 211 209 218 216 193 229 105 134 178 181 169 177 194 199 200 214 262 263 219 215 226 95 68 308 270 253 264 260 241 237 218 209 232 237 208 202 233 250 255 228 130 55 310 246 106 91 77 68 60 61 66 68 78 100 123 141 160
252 85 137 176 167 160 229 246 195 210 243 280 307 282 255 253 254 249 181 187 204 215 211 217 223 215 205 202 196 195 203 208 209 219 226 216 231 83 128 171 179 178 185 191 182 178 188 250 251 231 228 242 102 106 123 189 213 230 227 224 239 227 221 237 252 262 238 221 216 230 223 144 102 246 130 110 104 87 71 62 61 64 68 73 77 81 101 142
92 107 149 191 179 186 259 283 232 240 284 300 289 248 215 231 249 249 194 182 189 197 202 205 210 217 214 201 200 204 201 201 207 211 246 249 165 99 152 189 188 188 194 194 170 166 176 223 230 225 212 193 170 154 139 158 206 212 178 205 238 226 218 227 236 239 240 242 250 253 230 150 110 123 142 127 109 88 72 63 56 55 60 65 67 70 80 115
147 132 150 197 202 225 266 312 312 304 329 313 293 164 175 201 222 250 219 146 171 196 198 186 195 202 186 190 202 194 193 232 236 187 228 247 137 109 198 200 197 198 196 211 164 167 187 223 200 224 225 193 191 192 147 179 229 199 162 215 227 226 214 205 221 227 221 228 256 264 255 124 103 165 180 142 113 90 76 61 53 50 50 55 60 62 61 62
238 185 155 182 201 231 246 266 278 283 327 325 343 35 13 136 137 181 202 126 126 162 153 130 161 171 160 171 176 161 176 217 243 155 181 210 120 88 124 185 194 194 146 118 196 184 205 244 207 233 256 222 216 244 9 291 240 213 238 231 220 240 235 221 236 238 220 226 229 264 292 78 141 208 191 138 110 91 73 54 49 46 44 51 57 58 60 55
280 287 80 184 189 217 221 217 265 287 332 333 343 6 1 80 117 139 157 100 102 129 113 110 145 167 156 157 155 141 156 164 133 126 115 76 91 84 94 157 188 190 122 177 207 204 235 238 205 222 240 230 221 223 234 250 225 225 254 245 226 238 232 230 234 179 157 248 239 206 227 199 188 200 164 118 97 84 67 51 49 46 42 46 50 57 64 55
277 35 7 281 230 253 217 35 332 319 334 336 335 0 19 55 79 77 69 78 97 51 44 112 117 134 142 146 144 135 141 140 125 113 107 106 106 105 110 134 171 187 192 198 199 211 253 236 203 230 230 225 225 225 232 235 219 237 271 281 292 261 241 242 237 198 203 238 272 146 198 178 162 162 114 94 80 76 68 58 53 48 46 46 44 48 48 41
315 47 116 242 293 354 354 332 317 312 336 350 356 13 23 45 62 58 30 41 84 43 30 108 103 100 128 138 133 124 114 111 120 106 65 87 99 104 115 115 135 167 186 195 188 211 272 260 258 260 240 224 227 229 234 233 222 230 277 304 305 272 261 263 248 228 224 226 204 255 171 129 113 107 98 88 77 75 73 69 59 47 46 44 38 37 32 28
358 27 357 272 272 313 328 317 302 297 343 359 11 22 23 37 54 57 31 20 59 65 57 90 96 88 99 103 96 92 62 38 81 82 18 27 79 68 80 80 94 151 168 183 181 193 237 224 223 261 249 216 212 232 244 240 237 237 254 333 322 283 269 313 267 246 236 221 207 218 176 123 115 119 108 96 86 82 75 69 59 44 40 40 34 31 26 20
96 82 323 290 267 292 322 319 300 290 21 39 14 13 26 35 34 44 52 39 42 52 45 57 80 86 88 86 77 66 42 17 35 40 2 4 33 24 28 21 0 118 156 169 177 189 221 230 201 248 257 220 200 234 253 245 244 247 244 25 338 294 293 41 19 12 292 230 181 183 188 126 115 123 116 101 90 83 68 61 57 44 37 35 29 26 21 15
71 83 1 295 265 279 310 277 263 276 27 41 11 359 9 22 13 3 61 60 44 37 25 8 14 70 86 75 54 25 358 338 339 342 329 339 358 346 349 349 334 331 178 212 220 202 242 263 236 250 274 240 194 230 263 252 240 243 231 61 341 298 83 80 66 60 16 312 157 153 147 106 118 148 132 106 87 78 67 57 51 43 38 33 28 25 17 9
Height
1543 1543 1542 1541 1540 1539 1538 1536 1536 1534 1533 1532 1531 1530 1529 1528 1526 1525 1525 1524 1523 1523 1522 1522 1522 1522 1522 1523 1523 1523 1524 1525 1526 1526 1526 1526 1528 1529 1530 1531 1532 1533 1534 1535 1536 1537 1538 1539 1539 1538 1538 1537 1536 1535 1534 1534 1533 1531 1528 1526 1528 1528 1528 1529 1526 1527 1527 1526 1526 1526 1526 1526 1527 1528 1528 1529 1530 1531 1532 1532 1534 1535 1536 1536 1537 1538 1540 1543
1543 1542 1541 1540 1539 1538 1537 1536 1535 1534 1533 1532 1530 1529 1528 1527 1526 1525 1524 1523 1523 1522 1522 1521 1521 1522 1522 1522 1522 1523 1523 1524 1525 1524 1525 1526 1527 1528 1529 1530 1532 1533 1534 1535 1536 1537 1539 1539 1539 1538 1538 1537 1536 1535 1534 1533 1532 1530 1526 1526 1529 1527 1526 1525 1524 1524 1524 1526 1527 1526 1526 1526 1527 1528 1528 1529 1530 1531 1532 1533 1534 1535 1536 1537 1538 1539 1542 1544
1543 1542 1541 1540 1539 1538 1537 1536 1535 1534 1533 1531 1530 1529 1527 1526 1525 1524 1523 1523 1522 1522 1521 1521 1521 1521 1521 1522 1522 1522 1523 1524 1524 1524 1524 1525 1526 1527 1528 1530 1532 1533 1534 1536 1537 1539 1539 1539 1539 1538 1538 1537 1536 1535 1533 1533 1531 1529 1528 1528 1527 1525 1523 1523 1524 1525 1525 1526 1526 1526 1527 1526 1527 1528 1529 1528 1529 1530 1531 1533 1534 1535 1536 1538 1539 1541 1543 1545
1543 1542 1541 1540 1539 1538 1537 1536 1534 1533 1532 1531 1530 1528 1527 1526 1525 1524 1523 1522 1521 1521 1521 1521 1521 1521 1521 1521 1522 1522 1523 1523 1523 1523 1523 1524 1525 1526 1528 1529 1531 1533 1535 1537 1538 1539 1539 1540 1539 1539 1538 1536 1535 1534 1532 1532 1531 1529 1528 1528 1526 1523 1523 1523 1524 1525 1525 1526 1525 1527 1527 1527 1528 1529 1529 1528 1530 1531 1530 1532 1534 1534 1536 1537 1539 1541 1543 1545
1542 1541 1540 1539 1538 1537 1536 1535 1534 1533 1532 1531 1529 1528 1527 1525 1524 1523 1522 1521 1521 1520 1520 1521 1520 1521 1521 1521 1522 1522 1523 1523 1521 1522 1522 1523 1524 1526 1528 1529 1531 1533 1535 1537 1538 1539 1539 1539 1539 1539 1538 1534 1534 1533 1531 1531 1531 1529 1526 1525 1524 1523 1524 1523 1524 1525 1525 1526 1526 1526 1526 1527 1528 1530 1529 1528 1531 1531 1529 1532 1533 1535 1536 1537 1539 1541 1543 1545
1542 1541 1540 1538 1537 1537 1536 1535 1533 1533 1531 1530 1529 1528 1526 1525 1523 1522 1522 1521 1520 1520 1520 1520 1520 1520 1521 1521 1522 1522 1523 1522 1521 1521 1522 1522 1524 1526 1528 1529 1531 1533 1535 1537 1537 1539 1539 1539 1539 1537 1536 1533 1533 1532 1531 1531 1531 1531 1526 1523 1524 1524 1524 1523 1523 1524 1524 1525 1525 1525 1526 1527 1528 1530 1530 1530 1531 1530 1530 1532 1533 1535 1536 1538 1540 1541 1543 1545
1541 1540 1539 1538 1537 1536 1535 1534 1533 1532 1531 1530 1528 1527 1526 1524 1523 1522 1521 1520 1520 1520 1520 1520 1520 1520 1521 1521 1522 1522 1523 1522 1521 1521 1521 1522 1524 1526 1528 1529 1531 1533 1535 1536 1538 1538 1538 1539 1538 1536 1535 1534 1533 1532 1531 1530 1530 1531 1527 1523 1524 1524 1523 1522 1522 1522 1523 1524 1524 1525 1526 1526 1527 1529 1530 1531 1531 1531 1531 1532 1534 1536 1537 1539 1540 1541 1543 1545
1540 1539 1538 1537 1536 1535 1534 1533 1532 1531 1530 1529 1528 1527 1525 1524 1523 1521 1521 1520 1519 1519 1519 1520 1520 1520 1521 1521 1522 1522 1522 1522 1522 1521 1522 1522 1524 1525 1527 1529 1531 1532 1535 1536 1537 1538 1538 1538 1537 1536 1535 1534 1534 1532 1531 1530 1528 1529 1528 1524 1523 1523 1522 1521 1520 1521 1522 1523 1524 1525 1525 1525 1526 1527 1528 1529 1530 1531 1532 1533 1535 1536 1537 1539 1541 1542 1544 1545
1540 1538 1537 1536 1535 1534 1534 1533 1532 1531 1530 1529 1527 1526 1525 1523 1522 1521 1520 1519 1519 1519 1519 1519 1519 1520 1520 1521 1522 1521 1521 1521 1521 1522 1522 1523 1524 1526 1527 1529 1531 1533 1535 1536 1537 1538 1538 1537 1537 1537 1536 1534 1534 1532 1531 1531 1529 1528 1527 1524 1522 1521 1520 1520 1519 1520 1521 1522 1524 1524 1524 1525 1526 1527 1527 1528 1530 1531 1532 1534 1535 1536 1538 1540 1542 1543 1544 1546
1538 1537 1536 1535 1534 1534 1533 1532 1531 1530 1529 1528 1527 1526 1524 1523 1522 1521 1520 1519 1519 1519 1519 1519 1519 1520 1520 1522 1522 1520 1519 1521 1522 1522 1522 1523 1524 1526 1528 1529 1531 1533 1535 1536 1537 1537 1537 1537 1537 1537 1536 1534 1533 1532 1530 1530 1529 1527 1525 1523 1522 1521 1520 1520 1519 1519 1521 1522 1523 1523 1524 1525 1526 1528 1528 1527 1529 1531 1532 1534 1535 1537 1539 1540 1542 1543 1545 1546
1537 1536 1535 1534 1534 1533 1532 1531 1530 1529 1528 1527 1526 1525 1524 1523 1522 1521 1520 1519 1519 1518 1519 1519 1519 1520 1520 1521 1521 1519 1519 1521 1521 1522 1522 1523 1525 1527 1528 1530 1532 1534 1536 1536 1537 1537 1537 1538 1538 1537 1536 1534 1533 1531 1529 1529 1528 1525 1523 1522 1520 1520 1521 1520 1519 1521 1521 1521 1523 1522 1523 1524 1526 1527 1526 1526 1529 1531 1532 1534 1535 1537 1538 1540 1542 1544 1545 1546
1536 1535 1534 1534 1533 1532 1531 1530 1529 1528 1527 1527 1526 1524 1523 1522 1521 1520 1520 1519 1518 1518 1518 1519 1519 1520 1520 1522 1521 1519 1520 1521 1521 1522 1522 1524 1526 1528 1529 1531 1533 1535 1536 1537 1537 1537 1537 1537 1538 1537 1535 1534 1533 1531 1529 1527 1526 1523 1522 1523 1520 1518 1521 1520 1519 1521 1520 1521 1522 1522 1526 1526 1525 1525 1524 1526 1528 1530 1532 1534 1535 1537 1538 1540 1542 1543 1545 1546
1535 1534 1533 1533 1532 1531 1530 1529 1528 1528 1527 1526 1525 1524 1523 1522 1521 1520 1519 1519 1518 1518 1518 1518 1519 1520 1521 1521 1520 1520 1521 1521 1522 1522 1523 1524 1526 1527 1529 1531 1533 1534 1536 1537 1537 1537 1538 1537 1537 1537 1536 1534 1533 1532 1529 1525 1523 1521 1519 1521 1520 1522 1525 1520 1519 1520 1519 1522 1521 1524 1535 1531 1523 1522 1523 1525 1528 1530 1532 1533 1535 1537 1538 1540 1541 1543 1545 1546
1534 1533 1532 1532 1531 1530 1529 1528 1528 1526 1526 1525 1524 1523 1522 1521 1521 1520 1519 1519 1518 1518 1518 1518 1519 1520 1521 1520 1520 1520 1521 1521 1522 1523 1524 1525 1526 1528 1530 1531 1533 1534 1535 1536 1537 1537 1537 1537 1537 1536 1535 1534 1532 1531 1527 1522 1520 1519 1520 1520 1517 1525 1529 1520 1518 1519 1520 1523 1520 1526 1538 1532 1521 1521 1522 1525 1527 1529 1531 1532 1534 1536 1538 1539 1540 1542 1544 1545
1533 1532 1531 1531 1530 1529 1528 1528 1527 1526 1525 1524 1523 1522 1521 1521 1520 1520 1519 1519 1518 1518 1518 1518 1519 1520 1520 1520 1520 1520 1521 1522 1523 1523 1525 1526 1527 1529 1530 1532 1533 1534 1535 1537 1537 1537 1538 1537 1537 1535 1532 1532 1530 1529 1526 1521 1518 1517 1523 1525 1517 1522 1527 1520 1517 1517 1518 1522 1519 1524 1531 1527 1522 1521 1522 1525 1526 1528 1529 1531 1534 1535 1537 1539 1540 1542 1544 1545
1531 1531 1530 1529 1529 1528 1527 1527 1526 1525 1524 1523 1522 1521 1521 1520 1520 1520 1519 1518 1518 1518 1518 1519 1519 1520 1519 1519 1520 1521 1522 1523 1523 1524 1525 1526 1529 1530 1531 1532 1533 1534 1535 1536 1537 1538 1538 1537 1536 1534 1532 1530 1527 1527 1526 1523 1521 1517 1522 1528 1523 1522 1523 1521 1519 1514 1515 1519 1519 1522 1524 1523 1521 1520 1522 1525 1526 1527 1528 1530 1533 1535 1536 1538 1540 1541 1543 1544
1530 1529 1528 1528 1527 1527 1526 1525 1525 1524 1523 1522 1521 1521 1520 1520 1519 1519 1519 1519 1518 1518 1518 1519 1519 1520 1519 1518 1520 1521 1522 1523 1523 1524 1525 1527 1529 1530 1531 1532 1534 1535 1536 1537 1538 1538 1537 1537 1536 1533 1530 1528 1525 1526 1530 1530 1528 1525 1524 1526 1524 1522 1521 1521 1520 1514 1512 1516 1517 1519 1520 1520 1519 1518 1521 1524 1525 1526 1527 1529 1531 1534 1536 1537 1539 1541 1542 1543
1528 1528 1527 1526 1526 1525 1525 1524 1524 1523 1522 1521 1521 1520 1520 1519 1519 1518 1518 1518 1518 1518 1518 1518 1519 1520 1519 1518 1519 1520 1521 1522 1523 1524 1525 1526 1528 1530 1532 1533 1534 1535 1536 1536 1536 1536 1537 1535 1533 1531 1529 1527 1526 1528 1534 1536 1535 1533 1532 1530 1527 1523 1520 1520 1519 1513 1511 1513 1515 1518 1519 1517 1516 1516 1519 1523 1525 1525 1526 1528 1530 1532 1535 1536 1538 1539 1541 1543
1527 1526 1526 1525 1524 1524 1523 1523 1523 1522 1521 1520 1520 1520 1519 1519 1518 1518 1518 1518 1518 1517 1516 1517 1518 1517 1516 1517 1519 1520 1521 1522 1523 1525 1526 1526 1528 1530 1531 1533 1534 1534 1535 1534 1534 1534 1534 1533 1534 1535 1531 1527 1528 1529 1533 1533 1533 1534 1533 1533 1531 1526 1521 1517 1515 1510 1509 1513 1514 1515 1516 1514 1515 1516 1516 1520 1523 1524 1525 1526 1529 1531 1533 1535 1537 1538 1540 1542
1526 1525 1524 1524 1523 1522 1522 1522 1521 1520 1520 1520 1519 1519 1518 1518 1516 1516 1517 1517 1516 1515 1515 1516 1516 1516 1516 1517 1519 1520 1520 1522 1524 1525 1526 1527 1528 1530 1531 1533 1533 1533 1532 1530 1531 1531 1532 1534 1534 1531 1528 1527 1528 1529 1529 1529 1529 1531 1531 1531 1528 1525 1521 1514 1512 1509 1507 1513 1512 1510 1513 1511 1512 1514 1514 1518 1521 1522 1524 1525 1527 1529 1531 1534 1535 1537 1539 1540
1524 1523 1522 1522 1521 1521 1520 1520 1520 1519 1519 1519 1519 1519 1518 1517 1515 1515 1516 1515 1514 1514 1515 1516 1516 1516 1516 1517 1519 1519 1521 1523 1524 1525 1526 1527 1528 1529 1530 1531 1531 1531 1529 1526 1528 1529 1532 1535 1531 1525 1525 1526 1528 1527 1528 1528 1528 1529 1529 1529 1524 1521 1518 1512 1512 1510 1506 1513 1512 1508 1511 1510 1510 1512 1512 1515 1519 1520 1521 1523 1525 1527 1529 1532 1533 1535 1537 1539
1522 1521 1520 1520 1520 1519 1519 1519 1519 1519 1518 1518 1518 1518 1518 1518 1516 1517 1516 1514 1513 1514 1514 1515 1515 1516 1516 1518 1518 1519 1520 1521 1523 1525 1525 1527 1528 1527 1527 1529 1528 1527 1526 1526 1529 1531 1535 1533 1525 1523 1524 1526 1527 1526 1527 1528 1528 1528 1526 1525 1523 1517 1514 1512 1511 1509 1507 1512 1513 1508 1510 1510 1509 1510 1511 1513 1515 1517 1519 1521 1523 1525 1527 1529 1531 1534 1535 1538
1520 1518 1518 1518 1517 1517 1517 1517 1518 1517 1517 1517 1517 1517 1517 1517 1517 1517 1517 1514 1512 1513 1514 1514 1515 1516 1517 1517 1518 1518 1519 1519 1522 1524 1525 1526 1527 1526 1527 1527 1525 1524 1526 1528 1529 1532 1533 1527 1521 1522 1525 1526 1527 1526 1527 1527 1525 1524 1522 1523 1522 1515 1516 1518 1513 1509 1507 1509 1512 1512 1510 1510 1510 1511 1511 1512 1513 1515 1518 1520 1522 1523 1525 1527 1529 1532 1533 1535
1518 1517 1517 1516 1516 1516 1516 1516 1517 1516 1516 1516 1516 1517 1516 1517 1517 1516 1516 1513 1510 1511 1513 1514 1514 1515 1516 1516 1517 1518 1519 1518 1520 1522 1524 1526 1526 1527 1525 1523 1524 1525 1526 1525 1526 1528 1527 1522 1521 1523 1525 1526 1528 1526 1525 1526 1524 1520 1518 1520 1521 1516 1517 1518 1513 1509 1507 1507 1510 1511 1511 1510 1511 1514 1513 1512 1513 1515 1517 1519 1521 1522 1523 1526 1527 1529 1531 1533
1516 1515 1515 1515 1515 1515 1515 1516 1516 1515 1516 1516 1516 1516 1516 1517 1516 1516 1516 1513 1510 1511 1512 1513 1514 1514 1515 1516 1517 1517 1518 1518 1519 1521 1522 1524 1525 1525 1524 1523 1524 1525 1525 1524 1527 1528 1524 1521 1523 1526 1525 1525 1528 1526 1523 1525 1525 1520 1516 1516 1517 1517 1516 1515 1513 1512 1515 1517 1510 1511 1522 1519 1509 1511 1512 1511 1513 1514 1515 1516 1518 1520 1522 1524 1525 1527 1529 1531
1515 1514 1513 1514 1514 1514 1514 1515 1514 1515 1516 1516 1517 1516 1516 1517 1515 1517 1516 1510 1508 1510 1511 1512 1513 1513 1514 1515 1516 1517 1518 1518 1519 1521 1522 1524 1524 1524 1524 1524 1523 1523 1522 1524 1527 1526 1522 1519 1522 1525 1526 1526 1527 1526 1522 1522 1525 1522 1516 1513 1515 1516 1516 1515 1513 1515 1521 1522 1509 1507 1525 1525 1512 1511 1510 1509 1513 1513 1513 1515 1515 1518 1520 1521 1523 1525 1527 1529
1513 1513 1512 1512 1512 1513 1514 1514 1514 1515 1515 1516 1516 1516 1517 1516 1515 1517 1515 1513 1511 1508 1509 1511 1511 1511 1512 1514 1515 1516 1518 1517 1519 1522 1522 1523 1524 1524 1524 1522 1523 1524 1521 1525 1530 1525 1519 1522 1524 1524 1526 1527 1526 1523 1519 1520 1525 1522 1513 1512 1515 1515 1516 1514 1512 1514 1515 1514 1508 1505 1515 1522 1517 1514 1509 1507 1512 1513 1512 1513 1513 1514 1517 1519 1521 1523 1524 1527
1512 1511 1511 1511 1512 1512 1512 1513 1514 1514 1515 1516 1515 1516 1517 1515 1516 1516 1515 1519 1516 1506 1506 1510 1510 1511 1512 1514 1515 1514 1515 1514 1517 1521 1521 1523 1524 1523 1522 1520 1521 1522 1520 1527 1532 1522 1517 1523 1523 1523 1526 1526 1523 1519 1516 1519 1524 1518 1509 1511 1514 1513 1514 1511 1510 1511 1509 1515 1518 1509 1510 1521 1519 1510 1507 1508 1511 1513 1511 1509 1509 1511 1513 1516 1518 1520 1522 1524
1511 1510 1510 1510 1511 1511 1511 1512 1513 1514 1515 1515 1515 1516 1515 1516 1518 1514 1513 1518 1513 1504 1505 1509 1510 1512 1512 1514 1514 1513 1514 1514 1515 1518 1521 1523 1523 1522 1521 1519 1519 1520 1521 1525 1526 1519 1517 1520 1520 1521 1524 1522 1518 1515 1513 1517 1520 1513 1509 1511 1509 1508 1509 1509 1509 1509 1511 1521 1524 1513 1511 1523 1520 1506 1505 1512 1510 1507 1504 1502 1503 1506 1510 1513 1514 1517 1519 1522
1509 1509 1509 1509 1509 1510 1511 1511 1512 1513 1514 1515 1515 1515 1515 1517 1516 1515 1518 1517 1507 1504 1507 1508 1509 1510 1511 1513 1514 1512 1512 1514 1515 1517 1520 1522 1522 1522 1521 1521 1520 1520 1522 1523 1523 1519 1516 1518 1519 1520 1522 1518 1515 1514 1512 1514 1515 1511 1511 1511 1508 1506 1506 1508 1508 1508 1520 1527 1520 1512 1511 1520 1523 1508 1499 1504 1503 1497 1496 1498 1499 1502 1506 1509 1511 1514 1516 1519
1508 1508 1508 1508 1508 1509 1510 1511 1512 1513 1514 1515 1515 1515 1516 1515 1511 1513 1517 1510 1502 1506 1508 1507 1508 1508 1509 1511 1513 1513 1512 1513 1515 1517 1519 1520 1521 1522 1521 1523 1523 1523 1525 1524 1522 1519 1517 1520 1519 1517 1517 1516 1516 1516 1511 1509 1510 1512 1514 1513 1513 1512 1510 1514 1512 1514 1531 1532 1516 1509 1509 1516 1525 1512 1495 1494 1493 1490 1493 1495 1496 1498 1502 1506 1509 1511 1513 1516
1506 1506 1507 1507 1508 1508 1510 1511 1511 1512 1514 1514 1515 1515 1514 1514 1511 1509 1508 1504 1505 1507 1504 1505 1507 1506 1508 1509 1510 1512 1512 1513 1514 1514 1516 1518 1519 1520 1520 1520 1521 1526 1529 1524 1520 1519 1517 1516 1514 1513 1514 1514 1517 1518 1512 1509 1510 1514 1514 1514 1522 1524 1524 1530 1526 1524 1531 1525 1510 1508 1511 1518 1518 1505 1494 1492 1490 1489 1490 1491 1492 1495 1499 1503 1506 1509 1511 1514
1505 1505 1506 1506 1507 1508 1509 1509 1511 1512 1513 1514 1515 1513 1512 1515 1512 1502 1500 1503 1504 1502 1499 1502 1505 1504 1508 1510 1510 1511 1511 1513 1513 1512 1513 1514 1517 1518 1516 1515 1515 1521 1524 1519 1519 1520 1518 1515 1512 1514 1513 1511 1515 1517 1514 1511 1510 1512 1512 1514 1523 1527 1537 1543 1534 1530 1530 1519 1507 1507 1514 1519 1512 1499 1492 1491 1490 1489 1489 1491 1493 1494 1497 1501 1504 1507 1509 1511
1505 1505 1505 1506 1506 1508 1508 1509 1511 1511 1513 1514 1513 1512 1513 1514 1506 1498 1499 1500 1499 1498 1498 1501 1504 1506 1508 1509 1509 1509 1511 1513 1511 1512 1514 1515 1518 1518 1516 1516 1515 1517 1519 1518 1518 1517 1520 1519 1511 1510 1510 1507 1510 1510 1507 1506 1506 1505 1502 1508 1517 1519 1531 1539 1532 1532 1530 1519 1511 1511 1518 1520 1512 1500 1490 1487 1489 1489 1490 1491 1493 1495 1496 1499 1502 1505 1508 1509
1504 1504 1505 1506 1506 1507 1508 1509 1511 1511 1513 1514 1510 1511 1513 1508 1499 1496 1497 1496 1497 1499 1499 1500 1503 1509 1510 1508 1507 1506 1509 1512 1510 1512 1514 1514 1516 1516 1513 1514 1515 1516 1518 1521 1518 1514 1520 1517 1502 1501 1504 1502 1506 1504 1501 1506 1509 1504 1499 1509 1515 1509 1513 1521 1522 1522 1522 1521 1518 1514 1515 1508 1498 1492 1484 1485 1488 1487 1490 1492 1492 1496 1496 1498 1502 1503 1506 1508
1505 1505 1505 1506 1506 1507 1508 1509 1510 1511 1513 1512 1510 1510 1507 1499 1495 1494 1493 1493 1496 1498 1501 1504 1505 1508 1511 1509 1509 1508 1507 1509 1510 1512 1513 1512 1512 1511 1509 1509 1510 1514 1516 1517 1516 1515 1521 1515 1500 1501 1504 1501 1503 1502 1500 1507 1511 1508 1507 1510 1505 1498 1504 1516 1521 1517 1518 1530 1524 1511 1511 1503 1495 1495 1487 1486 1490 1487 1489 1491 1491 1495 1496 1498 1501 1501 1504 1506
1505 1506 1506 1506 1507 1507 1508 1509 1510 1512 1512 1510 1510 1507 1500 1495 1493 1492 1492 1493 1494 1494 1500 1505 1505 1505 1508 1509 1510 1509 1508 1508 1510 1511 1511 1511 1510 1507 1507 1507 1506 1509 1510 1511 1512 1511 1516 1513 1501 1501 1505 1501 1501 1502 1500 1500 1504 1509 1511 1504 1496 1500 1505 1511 1524 1526 1527 1535 1524 1511 1515 1512 1509 1510 1495 1488 1493 1490 1489 1490 1491 1494 1496 1497 1499 1501 1503 1504
1506 1506 1507 1507 1507 1507 1509 1510 1511 1512 1511 1509 1508 1504 1498 1495 1493 1492 1493 1493 1493 1494 1497 1500 1502 1501 1503 1507 1507 1506 1508 1510 1510 1510 1509 1510 1508 1503 1504 1506 1505 1506 1506 1509 1512 1510 1513 1515 1504 1499 1503 1501 1499 1503 1506 1501 1499 1503 1504 1498 1501 1516 1519 1516 1527 1534 1534 1537 1528 1516 1517 1514 1511 1509 1499 1495 1495 1492 1491 1491 1491 1493 1494 1496 1498 1500 1503 1504
1506 1507 1508 1508 1508 1509 1509 1510 1511 1512 1511 1508 1505 1501 1497 1495 1493 1493 1494 1494 1493 1496 1495 1494 1497 1500 1500 1501 1502 1503 1507 1507 1506 1508 1508 1508 1507 1501 1499 1502 1504 1505 1505 1507 1511 1509 1510 1516 1510 1499 1498 1499 1499 1504 1509 1505 1501 1500 1501 1499 1501 1511 1517 1517 1519 1523 1527 1534 1532 1526 1525 1518 1508 1501 1497 1497 1494 1491 1492 1492 1491 1491 1493 1495 1497 1499 1502 1503
1506 1506 1508 1509 1509 1510 1510 1511 1511 1510 1509 1505 1501 1498 1496 1495 1493 1492 1494 1494 1493 1494 1494 1491 1493 1499 1499 1497 1498 1500 1503 1503 1502 1505 1505 1504 1505 1501 1498 1499 1501 1503 1504 1505 1508 1508 1509 1514 1512 1502 1497 1502 1504 1502 1501 1502 1502 1504 1506 1506 1505 1505 1509 1513 1513 1512 1518 1528 1531 1534 1535 1521 1502 1495 1494 1495 1493 1490 1491 1491 1491 1491 1492 1495 1497 1498 1500 1502
1506 1505 1508 1510 1510 1510 1511 1511 1509 1506 1504 1501 1498 1497 1496 1495 1494 1492 1493 1494 1492 1491 1492 1491 1491 1494 1496 1497 1497 1497 1500 1503 1501 1502 1502 1501 1502 1501 1498 1497 1498 1500 1504 1507 1508 1508 1510 1512 1511 1506 1502 1504 1502 1493 1492 1495 1497 1499 1502 1502 1503 1505 1510 1523 1526 1514 1513 1521 1522 1528 1535 1519 1499 1494 1492 1492 1493 1490 1489 1490 1491 1492 1493 1496 1497 1499 1500 1502
1506 1505 1508 1510 1510 1510 1511 1509 1505 1504 1503 1500 1497 1496 1496 1496 1494 1492 1491 1492 1492 1491 1491 1492 1491 1490 1493 1494 1494 1495 1498 1501 1500 1500 1500 1498 1497 1498 1497 1496 1498 1499 1503 1507 1506 1504 1505 1509 1512 1509 1504 1499 1495 1490 1491 1493 1492 1494 1496 1495 1496 1501 1509 1524 1531 1518 1513 1517 1513 1516 1528 1517 1498 1494 1491 1489 1491 1490 1490 1492 1491 1493 1495 1496 1498 1499 1500 1502
1506 1506 1509 1510 1509 1510 1511 1506 1502 1502 1501 1497 1496 1495 1494 1495 1493 1491 1491 1491 1491 1491 1491 1492 1490 1490 1491 1490 1492 1495 1496 1498 1499 1498 1498 1497 1495 1494 1495 1497 1498 1498 1500 1504 1504 1503 1507 1511 1514 1512 1504 1496 1492 1490 1490 1490 1492 1496 1497 1494 1496 1500 1502 1508 1512 1511 1512 1515 1513 1520 1530 1516 1496 1491 1491 1490 1491 1491 1492 1492 1492 1494 1496 1497 1499 1500 1501 1502
1507 1508 1509 1509 1509 1510 1508 1504 1501 1500 1498 1496 1495 1493 1492 1493 1492 1490 1490 1489 1489 1489 1491 1490 1489 1489 1489 1488 1491 1493 1494 1498 1499 1496 1496 1497 1495 1494 1495 1497 1498 1497 1498 1500 1501 1504 1510 1512 1514 1518 1518 1514 1509 1505 1502 1498 1496 1497 1498 1496 1496 1497 1499 1501 1503 1507 1514 1513 1512 1523 1529 1513 1495 1492 1492 1490 1491 1492 1492 1493 1494 1495 1496 1498 1500 1500 1501 1502
1507 1508 1509 1509 1509 1509 1507 1503 1502 1501 1498 1497 1495 1492 1491 1491 1490 1490 1489 1488 1487 1487 1488 1488 1487 1487 1488 1489 1492 1492 1493 1497 1498 1497 1496 1496 1494 1494 1495 1497 1497 1496 1496 1497 1497 1500 1506 1508 1512 1521 1528 1530 1528 1522 1515 1509 1502 1499 1500 1500 1499 1497 1498 1503 1507 1512 1519 1516 1515 1522 1520 1506 1498 1498 1495 1491 1491 1493 1493 1494 1495 1496 1498 1499 1500 1501 1502 1502
1506 1505 1506 1507 1507 1507 1506 1504 1503 1501 1498 1497 1495 1492 1490 1489 1489 1489 1488 1488 1487 1485 1485 1486 1486 1487 1489 1490 1494 1495 1494 1494 1495 1496 1497 1496 1494 1493 1494 1496 1497 1496 1497 1499 1498 1499 1503 1505 1508 1514 1517 1517 1519 1514 1506 1504 1505 1506 1505 1502 1500 1498 1497 1501 1507 1512 1514 1516 1519 1519 1512 1508 1508 1506 1499 1493 1493 1495 1494 1494 1496 1498 1499 1500 1501 1501 1501 1502
1506 1504 1504 1505 1505 1504 1503 1502 1501 1500 1497 1497 1496 1494 1491 1489 1487 1488 1487 1487 1487 1486 1485 1485 1485 1488 1490 1491 1494 1497 1496 1493 1494 1496 1497 1496 1493 1493 1494 1496 1497 1498 1498 1500 1499 1499 1505 1507 1505 1507 1509 1505 1505 1504 1501 1502 1505 1507 1506 1504 1501 1499 1498 1502 1507 1508 1508 1515 1520 1514 1509 1513 1514 1506 1499 1496 1495 1495 1495 1496 1498 1499 1500 1501 1501 1501 1501 1502
1506 1505 1505 1505 1504 1502 1500 1500 1500 1498 1496 1496 1495 1493 1492 1489 1489 1491 1489 1486 1486 1485 1485 1488 1487 1486 1488 1488 1492 1497 1497 1497 1498 1498 1497 1496 1494 1494 1496 1496 1496 1498 1499 1499 1498 1498 1505 1507 1502 1503 1506 1502 1499 1500 1500 1502 1503 1503 1503 1502 1500 1499 1500 1503 1504 1503 1505 1511 1514 1509 1506 1510 1510 1502 1498 1497 1496 1495 1496 1498 1499 1500 1501 1501 1501 1501 1502 1502
1507 1506 1506 1506 1504 1502 1501 1501 1500 1498 1496 1496 1495 1494 1493 1492 1492 1493 1490 1488 1488 1485 1485 1490 1491 1487 1486 1486 1489 1496 1500 1500 1502 1502 1498 1497 1496 1495 1498 1499 1497 1497 1497 1498 1498 1498 1504 1507 1503 1503 1505 1501 1500 1500 1499 1500 1502 1502 1501 1499 1498 1497 1498 1500 1500 1499 1501 1505 1505 1502 1502 1507 1507 1502 1499 1497 1496 1496 1497 1499 1500 1500 1501 1502 1502 1502 1502 1502
1509 1508 1508 1507 1505 1502 1502 1501 1499 1497 1495 1495 1496 1495 1494 1494 1494 1494 1491 1491 1493 1490 1487 1491 1492 1489 1487 1488 1490 1497 1499 1498 1501 1502 1499 1498 1498 1497 1499 1500 1497 1495 1496 1498 1498 1500 1505 1508 1505 1503 1505 1504 1501 1500 1500 1500 1501 1502 1500 1498 1499 1497 1496 1499 1499 1497 1501 1503 1501 1500 1503 1507 1505 1500 1497 1497 1497 1497 1498 1499 1500 1501 1501 1502 1502 1503 1503 1503
1510 1510 1509 1508 1505 1502 1502 1500 1498 1497 1496 1496 1498 1497 1496 1496 1496 1495 1494 1493 1494 1494 1492 1492 1491 1489 1489 1491 1494 1498 1498 1497 1498 1499 1497 1498 1499 1498 1498 1497 1495 1496 1497 1498 1499 1500 1503 1506 1503 1504 1510 1508 1501 1501 1503 1500 1501 1503 1501 1503 1507 1504 1499 1499 1499 1498 1500 1501 1501 1504 1507 1506 1501 1496 1496 1497 1497 1498 1500 1500 1501 1502 1502 1502 1503 1503 1504 1504
1510 1510 1510 1509 1506 1503 1502 1500 1498 1498 1500 1501 1501 1500 1499 1498 1496 1495 1497 1496 1495 1495 1495 1493 1491 1491 1494 1497 1498 1499 1499 1498 1498 1498 1498 1498 1498 1497 1497 1496 1496 1497 1498 1498 1500 1499 1501 1504 1503 1506 1513 1508 1500 1501 1502 1502 1510 1512 1504 1503 1508 1505 1499 1499 1499 1498 1497 1496 1500 1509 1508 1502 1497 1496 1497 1498 1499 1500 1502 1502 1502 1503 1503 1503 1504 1504 1505 1504